| time (UTC) | temp F | wind direction | speed MPH | gust MPH | rain 1hr in | rain 24hr in | rain mn in | humidity % | barometer mb |
| 20260906230036 | 59 | 124 | 4.0 | 9.0 | 0.00 | 0.16 | 0.16 | 92 | 1020.4 |
| 20260906224536 | 58 | 149 | 3.0 | 5.0 | 0.00 | 0.16 | 0.16 | 92 | 1020.4 |
| 20260906221533 | 57 | 141 | 2.0 | 6.0 | 0.00 | 0.17 | 0.16 | 94 | 1020.4 |
| 20260906220037 | 57 | 142 | 2.0 | 5.0 | 0.00 | 0.17 | 0.16 | 95 | 1020.5 |
| 20260906214537 | 57 | 139 | 3.0 | 6.0 | 0.00 | 0.17 | 0.16 | 95 | 1020.5 |
| 20260906213036 | 56 | 136 | 3.0 | 6.0 | 0.00 | 0.17 | 0.16 | 95 | 1020.4 |
| 20260906211533 | 56 | 151 | 3.0 | 6.0 | 0.00 | 0.17 | 0.16 | 96 | 1020.4 |
| 20260906210031 | 56 | 142 | 3.0 | 6.0 | 0.00 | 0.17 | 0.16 | 96 | 1020.4 |
| 20260906204530 | 55 | 142 | 3.0 | 5.0 | 0.00 | 0.17 | 0.16 | 97 | 1020.4 |
| 20260906203031 | 55 | 130 | 4.0 | 7.0 | 0.00 | 0.17 | 0.16 | 97 | 1020.3 |
| 20260906201532 | 55 | 130 | 3.0 | 6.0 | 0.00 | 0.17 | 0.16 | 97 | 1020.3 |
| 20260906200036 | 55 | 310 | 0.0 | 4.0 | 0.00 | 0.17 | 0.16 | 98 | 1020.4 |
| 20260906194529 | 55 | 337 | 0.0 | 0.0 | 0.00 | 0.17 | 0.16 | 98 | 1020.3 |
| 20260906193034 | 55 | 337 | 0.0 | 3.0 | 0.00 | 0.17 | 0.16 | 98 | 1020.3 |
| 20260906184643 | 54 | 315 | 3.0 | 7.0 | 0.00 | 0.17 | 0.16 | 98 | 1020.2 |
| 20260906183144 | 54 | 314 | 2.0 | 4.0 | 0.00 | 0.17 | 0.16 | 98 | 1020.3 |
| 20260906181536 | 54 | 304 | 2.0 | 5.0 | 0.00 | 0.17 | 0.16 | 98 | 1020.3 |
| 20260906180034 | 54 | 332 | 2.0 | 4.0 | 0.00 | 0.17 | 0.16 | 98 | 1020.3 |
| 20260906174535 | 54 | 323 | 3.0 | 5.0 | 0.00 | 0.17 | 0.16 | 99 | 1020.3 |
| 20260906173035 | 54 | 320 | 4.0 | 7.0 | 0.00 | 0.17 | 0.16 | 99 | 1020.1 |
| 20260906171536 | 53 | 310 | 4.0 | 7.0 | 0.00 | 0.17 | 0.16 | 99 | 1020.1 |
| 20260906170031 | 53 | 317 | 3.0 | 6.0 | 0.00 | 0.17 | 0.16 | 99 | 1020.1 |
| 20260906164538 | 53 | 331 | 2.0 | 6.0 | 0.00 | 0.17 | 0.16 | 99 | 1020.1 |
| 20260906161532 | 52 | 309 | 2.0 | 4.0 | 0.00 | 0.17 | 0.16 | 98 | 1020.0 |
| 20260906160042 | 52 | 349 | 1.0 | 3.0 | 0.00 | 0.17 | 0.16 | 98 | 1020.0 |
| 20260906153033 | 52 | 135 | 0.0 | 0.0 | 0.01 | 0.17 | 0.16 | 98 | 1019.9 |
| 20260906151535 | 52 | 135 | 0.0 | 0.0 | 0.01 | 0.17 | 0.16 | 98 | 1019.7 |
| 20260906150035 | 52 | 135 | 0.0 | 1.0 | 0.03 | 0.17 | 0.15 | 98 | 1019.6 |
| 20260906144536 | 51 | 135 | 0.0 | 3.0 | 0.03 | 0.16 | 0.15 | 98 | 1019.4 |
| 20260906143035 | 51 | 135 | 0.0 | 0.0 | 0.04 | 0.16 | 0.15 | 98 | 1019.2 |
| 20260906141529 | 51 | 185 | 0.0 | 2.0 | 0.05 | 0.16 | 0.13 | 98 | 1019.1 |
| 20260906140034 | 51 | 164 | 0.0 | 4.0 | 0.03 | 0.14 | 0.12 | 98 | 1018.9 |
| 20260906134533 | 51 | 141 | 1.0 | 3.0 | 0.02 | 0.13 | 0.11 | 98 | 1018.8 |
| 20260906133033 | 51 | 166 | 2.0 | 4.0 | 0.02 | 0.12 | 0.10 | 98 | 1018.7 |
| 20260906130141 | 51 | 162 | 2.0 | 4.0 | 0.01 | 0.11 | 0.10 | 98 | 1018.7 |
| 20260906124533 | 51 | 163 | 1.0 | 3.0 | 0.01 | 0.11 | 0.09 | 98 | 1018.9 |
| 20260906121533 | 51 | 122 | 0.0 | 2.0 | 0.00 | 0.10 | 0.09 | 98 | 1018.9 |
| 20260906120037 | 51 | 112 | 0.0 | 4.0 | 0.00 | 0.10 | 0.09 | 98 | 1018.9 |
| 20260906114605 | 51 | 122 | 3.0 | 6.0 | 0.00 | 0.10 | 0.09 | 97 | 1019.0 |
| 20260906111641 | 52 | 125 | 2.0 | 4.0 | 0.00 | 0.10 | 0.09 | 97 | 1019.1 |
| 20260906110036 | 52 | 124 | 3.0 | 5.0 | 0.01 | 0.10 | 0.09 | 97 | 1019.1 |
| 20260906104535 | 52 | 154 | 3.0 | 6.0 | 0.03 | 0.10 | 0.09 | 97 | 1019.3 |
| 20260906103106 | 52 | 138 | 4.0 | 11.0 | 0.05 | 0.10 | 0.09 | 98 | 1019.5 |
| 20260906101534 | 52 | 133 | 2.0 | 6.0 | 0.07 | 0.10 | 0.08 | 98 | 1019.7 |
| 20260906100033 | 52 | 126 | 1.0 | 5.0 | 0.07 | 0.09 | 0.06 | 97 | 1019.7 |
| 20260906093034 | 52 | 135 | 3.0 | 5.0 | 0.04 | 0.05 | 0.02 | 97 | 1019.7 |
| 20260906091533 | 51 | 120 | 3.0 | 5.0 | 0.02 | 0.03 | 0.01 | 97 | 1019.6 |
| 20260906090037 | 51 | 186 | 2.0 | 4.0 | 0.01 | 0.02 | 0.00 | 97 | 1019.6 |
| 20260906084535 | 51 | 202 | 1.0 | 5.0 | 0.00 | 0.01 | 0.00 | 97 | 1019.7 |
| 20260906083034 | 51 | 184 | 1.0 | 4.0 | 0.00 | 0.01 | 0.00 | 97 | 1019.7 |
| 20260906081535 | 51 | 121 | 3.0 | 7.0 | 0.00 | 0.01 | 0.00 | 97 | 1019.6 |
| 20260906080128 | 51 | 158 | 2.0 | 4.0 | 0.00 | 0.01 | 0.00 | 97 | 1019.5 |
| 20260906074533 | 51 | 132 | 2.0 | 5.0 | 0.00 | 0.01 | 0.00 | 97 | 1019.4 |
| 20260906070031 | 50 | 181 | 2.0 | 4.0 | 0.00 | 0.01 | 0.00 | 97 | 1019.7 |
| 20260906064532 | 50 | 120 | 2.0 | 4.0 | 0.00 | 0.01 | 0.01 | 96 | 1019.7 |
| 20260906063032 | 50 | 157 | 0.0 | 2.0 | 0.00 | 0.01 | 0.01 | 96 | 1019.9 |
| 20260906061529 | 51 | 142 | 2.0 | 4.0 | 0.00 | 0.02 | 0.01 | 96 | 1020.0 |
| 20260906060035 | 51 | 162 | 2.0 | 6.0 | 0.00 | 0.04 | 0.01 | 96 | 1020.0 |
| 20260906054532 | 51 | 149 | 2.0 | 4.0 | 0.00 | 0.04 | 0.01 | 96 | 1020.0 |
| 20260906053032 | 51 | 134 | 2.0 | 5.0 | 0.00 | 0.04 | 0.01 | 96 | 1020.1 |
| 20260906050032 | 52 | 115 | 2.0 | 5.0 | 0.00 | 0.04 | 0.01 | 96 | 1020.2 |
| 20260906044538 | 52 | 179 | 3.0 | 7.0 | 0.00 | 0.04 | 0.01 | 96 | 1020.3 |
| 20260906043034 | 52 | 157 | 1.0 | 4.0 | 0.00 | 0.04 | 0.01 | 96 | 1020.4 |
| 20260906041606 | 52 | 166 | 2.0 | 5.0 | 0.00 | 0.04 | 0.01 | 96 | 1020.3 |
| 20260906040141 | 52 | 147 | 2.0 | 6.0 | 0.00 | 0.04 | 0.01 | 95 | 1020.2 |
| 20260906034532 | 52 | 130 | 1.0 | 5.0 | 0.00 | 0.04 | 0.01 | 95 | 1020.1 |
| 20260906033035 | 52 | 156 | 1.0 | 3.0 | 0.00 | 0.04 | 0.01 | 94 | 1019.9 |
| 20260906031534 | 52 | 151 | 2.0 | 4.0 | 0.00 | 0.04 | 0.01 | 94 | 1019.8 |
| 20260906030034 | 53 | 121 | 0.0 | 3.0 | 0.00 | 0.04 | 0.01 | 93 | 1019.6 |
| 20260906023034 | 55 | 206 | 0.0 | 3.0 | 0.00 | 0.04 | 0.01 | 91 | 1019.6 |
| 20260906021533 | 56 | 219 | 1.0 | 4.0 | 0.00 | 0.04 | 0.01 | 89 | 1019.6 |
| 20260906020034 | 58 | 202 | 0.0 | 2.0 | 0.00 | 0.04 | 0.01 | 86 | 1019.6 |
| 20260906014534 | 62 | 202 | 2.0 | 2.0 | 0.00 | 0.04 | 0.01 | 83 | 1019.5 |
| 20260906013040 | 64 | 193 | 2.0 | 3.0 | 0.00 | 0.04 | 0.01 | 84 | 1019.5 |
| 20260906011531 | 64 | 158 | 2.0 | 4.0 | 0.00 | 0.04 | 0.01 | 84 | 1019.6 |
| 20260906004536 | 64 | 126 | 2.0 | 4.0 | 0.00 | 0.04 | 0.01 | 81 | 1019.9 |
| 20260906003110 | 65 | 113 | 3.0 | 5.0 | 0.00 | 0.04 | 0.01 | 83 | 1019.9 |
| 20260906001530 | 65 | 137 | 2.0 | 6.0 | 0.00 | 0.04 | 0.01 | 84 | 1020.0 |
| 20260906000031 | 62 | 126 | 3.0 | 6.0 | 0.00 | 0.04 | 0.01 | 87 | 1020.1 |
| 20260905234534 | 60 | 151 | 3.0 | 8.0 | 0.00 | 0.04 | 0.01 | 87 | 1020.1 |
| 20260905233034 | 61 | 180 | 1.0 | 4.0 | 0.01 | 0.04 | 0.01 | 84 | 1020.1 |